Location: Tomaszow Mazowiecki
(51.5330°N, 20.0170°E)
Time: 09:32:02
(UTC+01:00)

ISS - Visible Passes

Search period start: 23 January 2020 00:00
Search period end: 02 February 2020 00:00
Orbit: 415 x 421 km, 51.6° (Epoch: 23 January)

Date Brightness Start Highest point End Pass type
(mag) Time Alt. Az. Time Alt. Az. Time Alt. Az.
23 Jan -2.0 17:38:53 10° SSW 17:41:27 20° SE 17:42:27 18° ESE visible
23 Jan -1.0 19:14:28 10° WSW 19:15:23 17° WSW 19:15:23 17° WSW visible
24 Jan -1.5 16:51:46 10° S 16:53:37 14° SE 16:55:29 10° ESE visible
24 Jan -3.2 18:26:33 10° SW 18:29:26 47° S 18:29:26 47° S visible
25 Jan -2.9 17:38:44 10° SW 17:41:53 38° SSE 17:43:27 23° E visible
25 Jan -1.2 19:15:07 10° W 19:16:22 21° W 19:16:22 21° W visible
26 Jan -2.3 16:51:02 10° SSW 16:53:57 28° SSE 16:56:52 10° E visible
26 Jan -3.8 18:27:04 10° WSW 18:30:20 77° SSW 18:30:20 77° SSW visible
27 Jan -3.6 17:39:04 10° WSW 17:42:24 65° SSE 17:44:15 24° E visible
27 Jan -1.3 19:15:47 10° W 19:17:11 23° W 19:17:11 23° W visible
28 Jan -3.9 18:27:42 10° W 18:31:05 86° N 18:31:05 86° N visible
29 Jan -3.8 17:39:37 10° W 17:43:00 88° SSE 17:44:59 23° E visible
29 Jan -1.4 19:16:24 10° W 19:17:54 24° W 19:17:54 24° W visible
30 Jan -3.9 18:28:18 10° W 18:31:42 89° S 18:31:48 84° ESE visible
31 Jan -3.8 17:40:12 10° W 17:43:35 86° N 17:45:43 21° E visible
31 Jan -1.5 19:17:00 10° W 19:18:38 25° W 19:18:38 25° W visible
01 Feb -3.7 18:28:52 10° W 18:32:13 66° SSW 18:32:35 60° SSE visible
